EW6393 Weather Reports


Display with metric or nautical units.
time (UTC)temp
F
wind
direction
speed
MPH
gust
MPH
rain 1hr
in
rain 24hr
in
rain mn
in
humidity
%
barometer
mb
20260904195625 84 156 6.0 13.0 0.00 0.00 0.00 19 1014.1
20260904195133 84 201 3.0 18.0 0.00 0.00 0.00 21 1014.3
20260904194618 84 196 5.0 18.0 0.00 0.00 0.00 20 1014.3
20260904194120 84 229 6.0 13.0 0.00 0.00 0.00 21 1014.4
20260904193622 83 301 5.0 16.0 0.00 0.00 0.00 22 1014.4
20260904193130 83 203 6.0 16.0 0.00 0.00 0.00 22 1014.5
20260904192612 83 216 4.0 12.0 0.00 0.00 0.00 23 1014.5
20260904192141 82 207 6.0 18.0 0.00 0.00 0.00 22 1014.5
20260904191623 82 264 9.0 18.0 0.00 0.00 0.00 21 1014.6
20260904191125 82 154 7.0 16.0 0.00 0.00 0.00 22 1014.6
20260904190634 82 139 5.0 16.0 0.00 0.00 0.00 22 1014.7
20260904190114 82 146 5.0 15.0 0.00 0.00 0.00 22 1014.6
20260904185623 82 171 7.0 19.0 0.00 0.00 0.00 23 1014.6
20260904185125 82 204 6.0 19.0 0.00 0.00 0.00 24 1014.6
20260904184633 82 190 7.0 13.0 0.00 0.00 0.00 22 1014.9
20260904184114 81 163 7.0 17.0 0.00 0.00 0.00 23 1014.8
20260904183615 81 150 8.0 17.0 0.00 0.00 0.00 23 1015.0
20260904183143 81 187 7.0 16.0 0.00 0.00 0.00 24 1014.9
20260904182624 81 167 5.0 12.0 0.00 0.00 0.00 24 1015.0
20260904182133 81 53 4.0 22.0 0.00 0.00 0.00 25 1015.0
20260904181613 81 141 5.0 22.0 0.00 0.00 0.00 25 1015.2
20260904181115 81 143 7.0 14.0 0.00 0.00 0.00 24 1015.2
20260904180614 81 174 6.0 14.0 0.00 0.00 0.00 24 1015.3
20260904180120 81 155 3.0 12.0 0.00 0.00 0.00 24 1015.3
20260904175623 80 236 5.0 21.0 0.00 0.00 0.00 24 1015.3
20260904175131 80 200 5.0 21.0 0.00 0.00 0.00 25 1015.3
20260904174613 80 217 6.0 12.0 0.00 0.00 0.00 25 1015.4
20260904174114 80 225 4.0 13.0 0.00 0.00 0.00 25 1015.4
20260904173615 80 44 3.0 19.0 0.00 0.00 0.00 25 1015.4
20260904173144 80 158 5.0 19.0 0.00 0.00 0.00 25 1015.5
20260904172632 80 271 4.0 14.0 0.00 0.00 0.00 26 1015.4
20260904172113 79 207 3.0 11.0 0.00 0.00 0.00 25 1015.4
20260904171614 79 144 4.0 12.0 0.00 0.00 0.00 25 1015.4
20260904171115 79 146 6.0 13.0 0.00 0.00 0.00 25 1015.4
20260904170623 79 142 7.0 17.0 0.00 0.00 0.00 25 1015.5
20260904170126 78 190 7.0 17.0 0.00 0.00 0.00 26 1015.4
20260904165635 78 141 8.0 14.0 0.00 0.00 0.00 25 1015.3
20260904165117 78 216 6.0 15.0 0.00 0.00 0.00 25 1015.2
20260904164619 78 127 9.0 19.0 0.00 0.00 0.00 24 1015.3
20260904164127 78 193 6.0 17.0 0.00 0.00 0.00 24 1015.3
20260904163628 78 241 7.0 25.0 0.00 0.00 0.00 24 1015.4
20260904163129 78 158 7.0 25.0 0.00 0.00 0.00 24 1015.4
20260904162636 78 146 7.0 13.0 0.00 0.00 0.00 24 1015.4
20260904162117 78 188 5.0 14.0 0.00 0.00 0.00 25 1015.4
20260904161620 78 91 7.0 18.0 0.00 0.00 0.00 25 1015.4
20260904161128 78 209 8.0 18.0 0.00 0.00 0.00 25 1015.4
20260904160610 78 176 3.0 13.0 0.00 0.00 0.00 27 1015.3
20260904160112 78 89 3.0 13.0 0.00 0.00 0.00 27 1015.3
20260904155640 77 164 7.0 21.0 0.00 0.00 0.00 25 1015.2
20260904155148 77 179 7.0 21.0 0.00 0.00 0.00 25 1015.3
20260904154656 78 280 7.0 17.0 0.00 0.00 0.00 25 1015.2
20260904154117 77 185 3.0 16.0 0.00 0.00 0.00 26 1015.2
20260904153618 77 131 8.0 16.0 0.00 0.00 0.00 26 1015.1
20260904153119 77 30 5.0 16.0 0.00 0.00 0.00 26 1015.0
20260904152628 77 157 5.0 15.0 0.00 0.00 0.00 27 1015.1
20260904152130 77 250 7.0 16.0 0.00 0.00 0.00 27 1015.0
20260904151611 77 145 6.0 16.0 0.00 0.00 0.00 27 1015.0
20260904151140 76 311 6.0 14.0 0.00 0.00 0.00 27 1015.0
20260904150627 76 188 4.0 15.0 0.00 0.00 0.00 28 1015.0
20260904150128 76 198 6.0 15.0 0.00 0.00 0.00 28 1015.0
20260904145637 76 139 5.0 16.0 0.00 0.00 0.00 29 1015.0
20260904145115 76 226 5.0 16.0 0.00 0.00 0.00 28 1015.0
20260904144624 75 141 7.0 21.0 0.00 0.00 0.00 28 1014.8
20260904144124 75 233 9.0 21.0 0.00 0.00 0.00 28 1014.7
20260904143633 75 155 7.0 18.0 0.00 0.00 0.00 28 1014.7
20260904143114 74 103 5.0 13.0 0.00 0.00 0.00 28 1014.7
20260904142616 73 218 6.0 13.0 0.00 0.00 0.00 29 1014.8
20260904142118 72 99 4.0 10.0 0.00 0.00 0.00 29 1014.8
20260904141647 72 218 4.0 15.0 0.00 0.00 0.00 29 1014.7
20260904141136 72 176 4.0 15.0 0.00 0.00 0.00 29 1014.7
20260904140115 71 193 4.0 14.0 0.00 0.00 0.00 29 1014.5
20260904135643 70 127 6.0 14.0 0.00 0.00 0.00 28 1014.5
20260904135130 70 204 3.0 12.0 0.00 0.00 0.00 28 1014.5
20260904134633 70 195 5.0 13.0 0.00 0.00 0.00 28 1014.3
20260904134114 69 190 3.0 13.0 0.00 0.00 0.00 28 1014.4
20260904133622 68 224 0.0 5.0 0.00 0.00 0.00 27 1014.2
20260904133126 67 137 1.0 4.0 0.00 0.00 0.00 27 1014.2
20260904132647 67 219 1.0 5.0 0.00 0.00 0.00 26 1014.2
20260904132114 67 166 1.0 5.0 0.00 0.00 0.00 26 1014.0
20260904131614 67 133 1.0 3.0 0.00 0.00 0.00 27 1014.0
20260904131144 66 316 1.0 3.0 0.00 0.00 0.00 27 1014.0
20260904130624 66 181 0.0 1.0 0.00 0.00 0.00 27 1013.9
20260904130111 66 127 0.0 1.0 0.00 0.00 0.00 27 1013.9
20260904125641 66 206 0.0 2.0 0.00 0.00 0.00 27 1013.9
20260904125140 66 148 0.0 2.0 0.00 0.00 0.00 26 1013.8
20260904124627 66 176 1.0 3.0 0.00 0.00 0.00 26 1013.8
20260904124129 66 215 1.0 3.0 0.00 0.00 0.00 25 1013.7
20260904123630 66 214 0.0 2.0 0.00 0.00 0.00 25 1013.7
20260904123110 66 142 0.0 2.0 0.00 0.00 0.00 25 1013.6
20260904122619 66 136 0.0 2.0 0.00 0.00 0.00 25 1013.6
20260904122119 66 63 1.0 2.0 0.00 0.00 0.00 24 1013.5
20260904121628 66 72 1.0 2.0 0.00 0.00 0.00 24 1013.5
20260904121130 65 49 0.0 2.0 0.00 0.00 0.00 23 1013.4
20260904120611 65 32 0.0 1.0 0.00 0.00 0.00 26 1013.4
20260904120119 65 305 0.0 1.0 0.00 0.00 0.00 25 1013.3
20260904115620 66 279 0.0 2.0 0.00 0.00 0.00 23 1013.3
20260904115123 66 279 0.0 2.0 0.00 0.00 0.00 23 1013.2
20260904114632 67 98 0.0 2.0 0.00 0.00 0.00 23 1013.2
20260904114114 67 84 0.0 3.0 0.00 0.00 0.00 22 1013.1
20260904113616 68 154 1.0 3.0 0.00 0.00 0.00 21 1013.1
20260904113125 68 110 0.0 4.0 0.00 0.00 0.00 21 1013.1
20260904112625 68 110 1.0 4.0 0.00 0.00 0.00 21 1013.1
20260904112126 68 176 0.0 4.0 0.00 0.00 0.00 21 1013.1
20260904111635 68 148 1.0 3.0 0.00 0.00 0.00 21 1013.1
20260904111117 68 195 1.0 3.0 0.00 0.00 0.00 21 1013.1
20260904110619 69 52 1.0 5.0 0.00 0.00 0.00 21 1013.1
20260904110112 69 157 0.0 5.0 0.00 0.00 0.00 20 1013.0
20260904105612 69 142 1.0 4.0 0.00 0.00 0.00 20 1013.0
20260904105114 69 156 1.0 4.0 0.00 0.00 0.00 19 1013.0
20260904104639 69 121 1.0 4.0 0.00 0.00 0.00 20 1012.9
20260904104121 69 97 1.0 3.0 0.00 0.00 0.00 19 1012.9
20260904103613 69 117 1.0 5.0 0.00 0.00 0.00 18 1012.7
20260904103114 70 107 2.0 4.0 0.00 0.00 0.00 18 1012.7
20260904102615 70 125 1.0 4.0 0.00 0.00 0.00 18 1012.7
20260904102122 70 149 0.0 2.0 0.00 0.00 0.00 17 1012.7
20260904101624 71 129 0.0 4.0 0.00 0.00 0.00 17 1012.6
20260904101125 71 169 1.0 7.0 0.00 0.00 0.00 16 1012.6
20260904100634 71 204 2.0 7.0 0.00 0.00 0.00 16 1012.4
20260904100112 72 143 1.0 4.0 0.00 0.00 0.00 16 1012.4
20260904095620 72 146 1.0 5.0 0.00 0.00 0.00 16 1012.4
20260904095139 72 157 2.0 5.0 0.00 0.00 0.00 16 1012.4
20260904094645 72 128 2.0 6.0 0.00 0.00 0.00 15 1012.3
20260904094134 72 203 2.0 6.0 0.00 0.00 0.00 15 1012.3
20260904093614 73 266 0.0 6.0 0.00 0.00 0.00 15 1012.2
20260904093116 73 139 2.0 12.0 0.00 0.00 0.00 15 1012.2
20260904092624 74 155 4.0 12.0 0.00 0.00 0.00 14 1012.1
20260904092125 74 181 5.0 12.0 0.00 0.00 0.00 14 1012.1
20260904091633 74 183 3.0 10.0 0.00 0.00 0.00 14 1012.0
20260904091114 74 186 3.0 10.0 0.00 0.00 0.00 14 1011.9
20260904090613 74 210 4.0 10.0 0.00 0.00 0.00 14 1012.1
20260904090119 74 245 5.0 11.0 0.00 0.00 0.00 14 1012.0
20260904085620 74 162 5.0 12.0 0.00 0.00 0.00 14 1012.0
20260904085121 74 153 4.0 12.0 0.00 0.00 0.00 14 1012.0
20260904084650 74 128 5.0 12.0 0.00 0.00 0.00 14 1011.9
20260904084111 74 202 4.0 9.0 0.00 0.00 0.00 15 1011.9
20260904083612 74 157 4.0 8.0 0.00 0.00 0.00 15 1011.9
20260904083120 74 87 3.0 9.0 0.00 0.00 0.00 15 1011.9
20260904082627 73 210 4.0 9.0 0.00 0.00 0.00 15 1011.9
20260904082129 73 257 3.0 6.0 0.00 0.00 0.00 16 1011.9
20260904081610 73 187 3.0 6.0 0.00 0.00 0.00 15 1011.8
20260904081111 73 195 2.0 7.0 0.00 0.00 0.00 16 1011.8
20260904080619 73 143 1.0 10.0 0.00 0.00 0.00 16 1011.7
20260904080147 74 144 3.0 10.0 0.00 0.00 0.00 16 1011.7
20260904075629 73 118 3.0 5.0 0.00 0.00 0.00 16 1011.7
20260904075111 74 191 1.0 6.0 0.00 0.00 0.00 16 1011.7
20260904074620 73 124 2.0 5.0 0.00 0.00 0.00 16 1011.8
20260904074121 74 128 1.0 8.0 0.00 0.00 0.00 16 1011.7
20260904073650 74 148 3.0 8.0 0.00 0.00 0.00 16 1011.7
20260904073111 74 113 2.0 7.0 0.00 0.00 0.00 16 1011.7
20260904072612 74 150 2.0 7.0 0.00 0.00 0.00 16 1011.7
20260904072121 74 141 2.0 5.0 0.00 0.00 0.00 17 1011.7
20260904071622 74 126 2.0 7.0 0.00 0.00 0.00 16 1011.7
20260904071124 75 199 2.0 11.0 0.00 0.00 0.00 16 1011.8
20260904070616 75 146 3.0 6.0 0.00 0.00 0.00 17 1011.7
20260904070125 75 126 2.0 7.0 0.00 0.00 0.00 16 1011.6
20260904065626 75 150 2.0 8.0 0.00 0.00 0.00 16 1011.6
20260904065136 75 220 3.0 12.0 0.00 0.00 0.00 16 1011.6
20260904064615 75 129 4.0 10.0 0.00 0.00 0.00 16 1011.6
20260904064145 75 141 3.0 10.0 0.00 0.00 0.00 17 1011.4
20260904063625 75 158 5.0 10.0 0.00 0.00 0.00 17 1011.5
20260904063127 75 132 1.0 5.0 0.00 0.00 0.00 18 1011.4
20260904062636 75 159 3.0 9.0 0.00 0.00 0.00 16 1011.4
20260904062118 75 152 3.0 9.0 0.00 0.00 0.00 17 1011.3
20260904061618 75 120 1.0 5.0 0.00 0.00 0.00 17 1011.3
20260904061126 75 138 2.0 6.0 0.00 0.00 0.00 17 1011.3
20260904060646 75 116 3.0 6.0 0.00 0.00 0.00 16 1011.2
20260904060133 76 134 2.0 9.0 0.00 0.00 0.00 17 1011.3
20260904055614 76 131 5.0 9.0 0.00 0.00 0.00 16 1011.2
20260904055122 76 147 5.0 8.0 0.00 0.00 0.00 17 1011.2
20260904054640 76 106 1.0 8.0 0.00 0.00 0.00 17 1011.1
20260904054127 76 117 2.0 6.0 0.00 0.00 0.00 17 1011.1
20260904053647 76 101 1.0 6.0 0.00 0.00 0.00 17 1011.1
20260904053135 76 104 3.0 8.0 0.00 0.00 0.00 17 1011.0
20260904052637 76 139 3.0 8.0 0.00 0.00 0.00 17 1011.0
20260904052124 76 151 1.0 6.0 0.00 0.00 0.00 17 1010.9
20260904051626 76 172 4.0 6.0 0.00 0.00 0.00 17 1011.0
20260904051125 76 158 3.0 6.0 0.00 0.00 0.00 17 1011.0
20260904050633 76 110 2.0 6.0 0.00 0.00 0.00 17 1011.0
20260904050115 76 148 2.0 7.0 0.00 0.00 0.00 16 1011.0
20260904045616 77 223 1.0 11.0 0.00 0.00 0.00 16 1011.1
20260904045125 77 101 2.0 6.0 0.00 0.00 0.00 17 1011.1
20260904044626 77 156 3.0 6.0 0.00 0.00 0.00 16 1011.1
20260904044135 77 194 2.0 6.0 0.00 0.00 0.00 16 1011.1
20260904043614 78 147 4.0 13.0 0.00 0.00 0.00 16 1011.1
20260904043114 78 132 4.0 13.0 0.00 0.00 0.00 16 1011.1
20260904042623 78 113 3.0 8.0 0.00 0.00 0.00 16 1011.1
20260904042125 78 124 4.0 8.0 0.00 0.00 0.00 16 1011.0
20260904041634 78 134 3.0 12.0 0.00 0.00 0.00 16 1011.1
20260904041115 78 167 6.0 12.0 0.00 0.00 0.00 16 1011.1
20260904040615 78 131 5.0 15.0 0.00 0.00 0.00 16 1011.1
20260904040125 77 158 4.0 15.0 0.00 0.00 0.00 17 1011.0
20260904035633 77 230 4.0 10.0 0.00 0.00 0.00 17 1010.9
20260904035113 77 145 2.0 7.0 0.00 0.00 0.00 17 1010.9
20260904034614 77 98 1.0 5.0 0.00 0.00 0.00 17 1010.9
20260904034115 77 103 3.0 5.0 0.00 0.00 0.00 17 1010.9
20260904033623 77 63 2.0 6.0 0.00 0.00 0.00 17 1010.9
20260904033123 77 134 3.0 6.0 0.00 0.00 0.00 18 1010.8
20260904032631 77 108 1.0 4.0 0.00 0.00 0.00 18 1010.9
20260904032117 77 99 2.0 5.0 0.00 0.00 0.00 18 1010.9
20260904031620 77 118 3.0 5.0 0.00 0.00 0.00 17 1010.8
20260904031129 78 136 3.0 5.0 0.00 0.00 0.00 17 1010.8
20260904030646 78 127 2.0 7.0 0.00 0.00 0.00 17 1010.7
20260904030117 78 125 3.0 7.0 0.00 0.00 0.00 17 1010.7
20260904025617 78 158 2.0 6.0 0.00 0.00 0.00 17 1010.6
20260904025120 78 209 3.0 6.0 0.00 0.00 0.00 16 1010.6
20260904024627 78 131 1.0 5.0 0.00 0.00 0.00 17 1010.6
20260904024130 78 120 3.0 6.0 0.00 0.00 0.00 17 1010.5
20260904023632 78 134 3.0 6.0 0.00 0.00 0.00 17 1010.5
20260904023119 79 129 3.0 7.0 0.00 0.00 0.00 17 1010.5
20260904022620 79 136 3.0 9.0 0.00 0.00 0.00 17 1010.4
20260904022123 78 124 4.0 9.0 0.00 0.00 0.00 17 1010.5
20260904021632 78 98 2.0 6.0 0.00 0.00 0.00 18 1010.5
20260904021113 78 117 3.0 6.0 0.00 0.00 0.00 18 1010.4
20260904020614 79 151 1.0 3.0 0.00 0.00 0.00 17 1010.5
20260904020121 79 115 1.0 4.0 0.00 0.00 0.00 17 1010.4
20260904015621 80 154 1.0 6.0 0.00 0.00 0.00 16 1010.4
20260904015123 81 155 2.0 10.0 0.00 0.00 0.00 16 1010.5
20260904014612 81 158 3.0 10.0 0.00 0.00 0.00 16 1010.6
20260904014113 82 337 1.0 6.0 0.00 0.00 0.00 16 1010.5
20260904013615 82 262 1.0 6.0 0.00 0.00 0.00 16 1010.4
20260904013124 82 219 1.0 5.0 0.00 0.00 0.00 16 1010.5
20260904012654 83 74 1.0 4.0 0.00 0.00 0.00 16 1010.5
20260904012114 83 203 1.0 8.0 0.00 0.00 0.00 17 1010.5
20260904011616 83 297 1.0 10.0 0.00 0.00 0.00 16 1010.6
20260904011117 83 13 3.0 10.0 0.00 0.00 0.00 15 1010.5
20260904010625 83 179 1.0 10.0 0.00 0.00 0.00 16 1010.6
20260904010123 83 198 4.0 10.0 0.00 0.00 0.00 15 1010.6
20260904005633 82 234 1.0 7.0 0.00 0.00 0.00 16 1010.6
20260904005114 82 169 3.0 8.0 0.00 0.00 0.00 15 1010.6
20260904004636 81 173 4.0 8.0 0.00 0.00 0.00 15 1010.6
20260904004123 81 240 4.0 9.0 0.00 0.00 0.00 16 1010.8
20260904003626 82 154 3.0 10.0 0.00 0.00 0.00 15 1010.6
20260904003135 82 207 3.0 11.0 0.00 0.00 0.00 15 1010.7
20260904002616 82 212 3.0 12.0 0.00 0.00 0.00 15 1010.7
20260904002117 83 95 4.0 9.0 0.00 0.00 0.00 14 1010.8
20260904001627 83 155 3.0 8.0 0.00 0.00 0.00 14 1010.8
20260904001127 84 129 3.0 8.0 0.00 0.00 0.00 14 1010.8
20260904000629 84 162 4.0 11.0 0.00 0.00 0.00 14 1010.9
20260904000117 84 176 3.0 11.0 0.00 0.00 0.00 13 1010.9
20260903235638 85 228 3.0 10.0 0.00 0.00 0.00 14 1011.0
20260903235145 86 186 4.0 13.0 0.00 0.00 0.00 13 1011.0
20260903234625 86 150 5.0 13.0 0.00 0.00 0.00 14 1011.1
20260903234133 86 160 7.0 13.0 0.00 0.00 0.00 13 1011.0
20260903233636 86 84 3.0 10.0 0.00 0.00 0.00 14 1011.1
20260903233123 86 250 5.0 13.0 0.00 0.00 0.00 13 1011.1
20260903232624 85 125 4.0 13.0 0.00 0.00 0.00 14 1011.2
20260903232126 85 233 5.0 15.0 0.00 0.00 0.00 14 1011.3
20260903231635 85 174 6.0 15.0 0.00 0.00 0.00 12 1011.4
20260903231116 85 141 6.0 15.0 0.00 0.00 0.00 13 1011.4
20260903230644 85 170 3.0 15.0 0.00 0.00 0.00 13 1011.3
20260903230124 85 122 3.0 15.0 0.00 0.00 0.00 13 1011.4
20260903225622 85 180 8.0 15.0 0.00 0.00 0.00 12 1011.5
20260903225151 85 205 5.0 13.0 0.00 0.00 0.00 13 1011.4
20260903224638 85 267 5.0 13.0 0.00 0.00 0.00 14 1011.6
20260903224120 85 240 5.0 11.0 0.00 0.00 0.00 14 1011.7
20260903223622 85 229 5.0 11.0 0.00 0.00 0.00 13 1011.8
20260903223122 85 204 4.0 12.0 0.00 0.00 0.00 14 1011.9
20260903222630 84 212 6.0 15.0 0.00 0.00 0.00 13 1011.9
20260903222136 85 140 8.0 15.0 0.00 0.00 0.00 13 1012.1
20260903221615 85 195 3.0 13.0 0.00 0.00 0.00 14 1012.1
20260903221116 84 128 3.0 15.0 0.00 0.00 0.00 14 1012.2
20260903220618 84 179 7.0 15.0 0.00 0.00 0.00 13 1012.3
20260903220125 84 182 5.0 13.0 0.00 0.00 0.00 13 1012.3
20260903215627 84 221 7.0 13.0 0.00 0.00 0.00 12 1012.5
20260903215136 84 210 4.0 10.0 0.00 0.00 0.00 14 1012.5
20260903214616 84 143 6.0 10.0 0.00 0.00 0.00 13 1012.7
20260903214117 84 170 4.0 12.0 0.00 0.00 0.00 14 1012.7
20260903213625 83 198 4.0 15.0 0.00 0.00 0.00 13 1012.6
20260903213135 84 203 7.0 18.0 0.00 0.00 0.00 13 1012.6
20260903212614 84 217 8.0 18.0 0.00 0.00 0.00 14 1012.8
20260903212124 84 115 4.0 9.0 0.00 0.00 0.00 15 1012.7
20260903211626 84 224 4.0 14.0 0.00 0.00 0.00 14 1012.9
20260903211136 83 200 5.0 15.0 0.00 0.00 0.00 14 1012.9
20260903210615 83 174 6.0 15.0 0.00 0.00 0.00 13 1012.9
20260903210114 83 186 3.0 17.0 0.00 0.00 0.00 15 1013.1
20260903205614 83 211 5.0 17.0 0.00 0.00 0.00 14 1013.2
20260903205122 84 192 5.0 13.0 0.00 0.00 0.00 14 1013.2
20260903204624 84 205 5.0 11.0 0.00 0.00 0.00 13 1013.2
20260903204133 83 148 3.0 10.0 0.00 0.00 0.00 15 1013.4
20260903203615 83 110 5.0 16.0 0.00 0.00 0.00 14 1013.5
20260903203115 83 134 4.0 15.0 0.00 0.00 0.00 15 1013.7
20260903202616 82 189 4.0 15.0 0.00 0.00 0.00 15 1013.7
20260903202125 83 155 6.0 14.0 0.00 0.00 0.00 14 1013.8
20260903201626 82 201 4.0 15.0 0.00 0.00 0.00 15 1013.9
20260903201134 82 188 4.0 15.0 0.00 0.00 0.00 16 1013.9
20260903200615 82 125 7.0 13.0 0.00 0.00 0.00 14 1014.0
20260903200116 82 159 6.0 13.0 0.00 0.00 0.00 15 1014.1